Regional Weather Roundup
Issued by NWS

Home | Current Version | Previous Version | Text Only | Print | Product List | Glossary Off
Versions: 1 2 3 4 5 6 7 8 9 10 11 12 13 14 15 16 17 18 19 20 21 22 23 24 25 26 27 28 29 30 31 32 33 34 35 36 37 38 39 40 41 42 43 44 45 46 47 48 49 50

000
ASUS43 KIND 030159
RWRIN

WEATHER ROUNDUP FOR INDIANA
NATIONAL WEATHER SERVICE INDIANAPOLIS IN
1000 PM EDT MON MAY 02 2016

NOTE: "FAIR" INDICATES FEW OR NO CLOUDS BELOW 12,000 FEET WITH NO
SIGNIFICANT WEATHER AND/OR OBSTRUCTIONS TO VISIBILITY.

* - STATION DOES NOT REPORT WEATHER SUCH AS PRECIPITATION OR FOG.

+ - STATION NOT QUALITY CONTROLLED BY THE NATIONAL WEATHER SERVICE.
    USE DATA WITH CAUTION...ESPECIALLY DEWPOINT AND RELATIVE
    HUMIDITY OBSERVATIONS.

INZ001>003-010>013-019-020-030300-
NORTHWEST INDIANA

CITY           SKY/WX    TMP DP  RH WIND       PRES   REMARKS
GARY /AIRPORT/ MOCLDY    48  43  81 N5        30.03S

$$

LMZ046-743>745-030300-
SOUTHERN LAKE MICHIGAN

STATION/POSITION TIME  TEMP    WIND        PRES    WAVE
                       AIR SEA DIR/SP/G            HT
                 (UTC) (F)     (DEG/KT/KT) (MB)    (FT)
BURNS HARBOR     0100   47      40/  7/  9 1016.9F
MICHIGAN CITY    0100   46      20/  5/  5   N/A

$$

INZ004-005-014>016-021>024-030300-
NORTH CENTRAL INDIANA

CITY           SKY/WX    TMP DP  RH WIND       PRES   REMARKS
GOSHEN         CLOUDY    50  47  89 NE3       29.99S
SOUTH BEND     CLOUDY    49  42  77 N5        30.01S

$$

INZ006>009-017-018-025>027-030300-
NORTHEAST INDIANA

CITY           SKY/WX    TMP DP  RH WIND       PRES   REMARKS
ANGOLA *+      CLOUDY    48  39  71 N3        29.99S
FORT WAYNE     DRIZZLE   50  47  89 NE7       29.99S

$$

INZ028-029-035-036-043>045-051>053-030300-
WEST CENTRAL INDIANA

CITY           SKY/WX    TMP DP  RH WIND       PRES   REMARKS
CRAWFORDSVL +  CLOUDY    49  49 100 N6        29.98S
GREENCASTLE +  CLOUDY    52  50  93 N3        29.98S
LAFAYETTE      CLOUDY    50  47  89 NE8       29.99R
TERRE HAUTE    CLOUDY    54  49  83 CALM      29.97F

$$

INZ030>032-037>040-046>048-054>057-064-065-030300-
CENTRAL INDIANA

CITY           SKY/WX    TMP DP  RH WIND       PRES   REMARKS
CP ATTERBURY + CLOUDY    54  50  87 W3        29.96S
COLUMBUS       CLOUDY    55  54  94 W5        29.96R
INDIANAPOLIS   CLOUDY    53  50  89 NW8       29.95R
-EAGLE CREEK   CLOUDY    53  51  93 N6        29.96R
KOKOMO *+      CLOUDY    50  46  87 NE8       29.97S
SHELBYVILLE    CLOUDY    58  51  78 CALM      29.94S

$$

INZ033-034-041-042-049-050-058-059-030300-
EAST CENTRAL INDIANA

CITY           SKY/WX    TMP DP  RH WIND       PRES   REMARKS
MUNCIE         CLOUDY    53  48  83 NE8       29.96R

$$

INZ060-061-067>069-081>083-085>088-030300-
SOUTHWEST INDIANA

CITY           SKY/WX    TMP DP  RH WIND       PRES   REMARKS
EVANSVILLE     CLOUDY    57  49  74 NW3       29.99R
HUNTINGBURG *+ CLOUDY    55  48  76 N6        29.98R

$$

INZ062-063-066-070>080-084-089>092-030300-
SOUTH CENTRAL AND SOUTHEAST INDIANA

CITY           SKY/WX    TMP DP  RH WIND       PRES   REMARKS
BLOOMINGTON    CLOUDY    54  49  83 W3        29.96S
MADISON *+     CLOUDY    57  48  72 CALM      29.97S
SEYMOUR +      CLOUDY    57  50  77 CALM      29.96

$$





USA.gov is the U.S. government's official web portal to all federal, state and local government web resources and services.